Welcome to the New NWS' Forecast!
Most changes are behind the scenes, but click here for differences you might notice.
Latest weather observations around

Philadelphia, Philadelphia International Airport (KPHL)

Using English Units (Switch to International System of Units)
Date/ Time (EST) Wind (mph) Vis. (mi) Weather Sky Cond. Temp (°F) Rel. Humidity Wind Chill (°F) Heat Index (°F) Pressure Precip. (in)
Air Dwpt 6 hour Altimeter (inHg) Sea level (inHg) 1 hr 3 hr 6 hr
Max Min
Dec 09 13:54 Calm 10 Cloudy OVC170 35 18     49%     30.35 30.35      
Dec 09 12:54 Calm 10 Cloudy OVC180 34 17     50%     30.37 30.37      
Dec 09 11:54 Calm 10 Cloudy OVC190 33 16     49%     30.41 30.4      
Dec 09 10:54 NE 5 10 Cloudy OVC190 32 16     51% 27   30.44 30.44      
Dec 09 09:54 ENE 6 10 Cloudy OVC180 31 16     53% 25   30.48 30.47      
Dec 09 08:54 ENE 6 10 Cloudy OVC190 30 16     55% 24   30.49 30.48      
Dec 09 07:54 NE 5 10 Cloudy OVC200 28 17     63% 23   30.48 30.48      
Dec 09 06:54 ENE 6 10 Cloudy OVC210 28 17     63% 22   30.5 30.5      
Dec 09 05:54 NE 7 10 Cloudy OVC220 28 16     60% 21   30.49 30.49      
Dec 09 04:54 N 8 10 Cloudy OVC220 29 16     58% 21   30.5 30.5      
Dec 09 03:54 Calm 10 Cloudy OVC230 27 18     68%     30.51 30.51      
Dec 09 02:54 NW 5 10 Cloudy OVC230 28 18     65% 23   30.54 30.53      
Dec 09 01:54 NNW 5 10 Cloudy OVC240 28 18     65% 23   30.56 30.55      
Dec 09 00:54 NNW 6 10 Cloudy OVC250 27 18     68% 20   30.55 30.55      
Dec 08 23:54 NNW 6 10 Mostly Cloudy BKN250 28 18     65% 22   30.56 30.55      
Dec 08 22:54 NNW 6 10 Mostly Cloudy BKN250 27 17     66% 20   30.57 30.57      
Dec 08 21:54 WNW 7 10 Mostly Cloudy BKN250 31 16     53% 24   30.58 30.58      
Dec 08 20:54 WNW 8 10 Mostly Cloudy BKN250 32 16     51% 25   30.56 30.55      
Dec 08 19:54 NW 6 10 Mostly Cloudy BKN250 32 15     49% 26   30.54 30.53      
Dec 08 18:54 W 6 10 Mostly Cloudy BKN250 33 15     47% 28   30.54 30.54      
Dec 08 17:54 WNW 8 10 Partly Cloudy SCT250 34 14     43% 27   30.52 30.52      
Dec 08 16:54 WNW 9 10 Partly Cloudy FEW050 SCT250 35 14     42% 28   30.51 30.5      
Dec 08 15:54 NW 10 10 Mostly Cloudy SCT050 BKN250 36 15     42% 29   30.5 30.5      
Dec 08 14:54 WNW 13 10 Mostly Cloudy SCT050 BKN250 38 15     39% 30   30.47 30.47      
Dec 08 13:54 WNW 9 10 Mostly Cloudy SCT050 BKN250 37 15     40% 30   30.48 30.47      
Dec 08 12:54 W 13 10 Mostly Cloudy SCT050 BKN250 36 15     42% 27   30.47 30.47      
Dec 08 11:54 WSW 14 10 Clear   35 16     45% 26   30.5 30.5      
Dec 08 10:54 SW 13 10 Mostly Cloudy FEW046 SCT055 BKN250 33 17     51% 24   30.54 30.54      
Dec 08 09:54 SW 6 10 Mostly Cloudy FEW040 SCT050 BKN250 30 14     51% 24   30.56 30.55      
Dec 08 08:54 SSW 3 10 Mostly Cloudy SCT055 BKN250 27 17     66% 23   30.53 30.53      
Dec 08 07:54 Calm 10 Mostly Cloudy BKN050 BKN250 26 19     74%     30.52 30.51      
Dec 08 06:54 Calm 10 Partly Cloudy FEW050 SCT250 24 18     77%     30.51 30.51      
Dec 08 05:54 Calm 10 Mostly Clear FEW045 FEW250 25 17     71%     30.5 30.5      
Dec 08 04:54 Calm 10 Mostly Clear FEW250 24 16     71%     30.49 30.49      
Dec 08 03:54 Calm 10 Clear CLR 25 16     68%     30.49 30.49      
Dec 08 02:54 Calm 10 Clear CLR 26 15     63%     30.49 30.48      
Dec 08 01:54 N 7 10 Clear CLR 27 13     55% 19   30.49 30.49      
Dec 08 00:54 N 5 10 Clear CLR 27 12     53% 21   30.47 30.47      
Dec 07 23:54 N 6 10 Mostly Clear FEW250 28 12     51% 22   30.47 30.47      
Dec 07 22:54 NNW 3 10 Mostly Clear FEW250 29 15     56% 25   30.48 30.48      
Dec 07 21:54 NNW 5 10 Mostly Clear FEW250 29 14     53% 24   30.47 30.47      
Dec 07 20:54 NNW 5 10 Clear CLR 31 14     49% 26   30.47 30.47      
Dec 07 18:54 NNW 8 10 Clear CLR 33 15     47% 26   30.46 30.45      
Dec 07 17:54 NNW 14 10 Partly Cloudy SCT050 34 15     45% 25   30.44 30.43      
Dec 07 16:54 WNW 11 10 Mostly Cloudy BKN050 36 15     42% 28   30.42 30.42      
Dec 07 15:54 W 9 10 Partly Cloudy SCT050 37 15     40% 30   30.4 30.39      
Dec 07 14:54 NW 13 10 Partly Cloudy SCT055 39 15     37% 31   30.38 30.37      
Dec 07 13:54 NNW 16 10 Partly Cloudy SCT050 SCT200 39 14     36% 30   30.37 30.37      
Dec 07 12:54 NNW 16 10 Partly Cloudy SCT050 SCT200 39 14     36% 30   30.38 30.37      
Dec 07 11:54 WNW 14 10 Partly Cloudy SCT050 38 12     34% 30   30.4 30.4      
Dec 07 10:54 NNW 16 10 Partly Cloudy FEW050 SCT260 38        % 29   30.41 30.4      
Dec 07 09:54 NNW 14 10 Mostly Clear FEW055 FEW260 37        % 28   30.42 30.41      
Dec 07 08:54 NW 13 10 Mostly Clear FEW055 FEW100 36        % 27   30.39 30.39      
Dec 07 07:54 NW 10 10 Mostly Clear FEW055 34        % 26   30.36 30.36      
Dec 07 06:54 NW 11 10 Partly Cloudy SCT055 35        % 27   30.34 30.33      
Dec 07 05:54 WNW 8 10 Mostly Clear FEW035 FEW065 36 25     64% 30   30.3 30.3      
Dec 07 04:54 W 8 10 Partly Cloudy SCT070 35 24     64% 29   30.27 30.27      
Dec 07 02:54 WSW 11 10 Mostly Clear FEW060 36 24     62% 28   30.24 30.24      
Dec 07 01:54 SW 13 10 Partly Cloudy FEW060 SCT090 38 25     59% 30   30.22 30.22      
Dec 07 00:54 WSW 10 10 Cloudy BKN060 OVC090 38 25     59% 31   30.2 30.2      
Dec 06 23:54 SW 15 10 Cloudy BKN060 BKN110 OVC200 38 25     59% 29   30.2 30.19      
Dec 06 22:54 SW 17 10 Cloudy BKN060 OVC100 39 25     57% 30   30.2 30.19      
Dec 06 21:54 SW 15 10 Cloudy SCT110 OVC150 39 25     57% 31   30.19 30.19      
Dec 06 20:54 SSW 14 10 Cloudy BKN070 OVC085 39 24     55% 31   30.19 30.19      
Dec 06 19:54 SSW 14 10 Cloudy OVC095 39 24     55% 31   30.21 30.21      
Dec 06 18:54 SSW 14 10 Cloudy BKN090 OVC250 39 23     52% 31   30.21 30.21      
Dec 06 17:54 SW 13 10 Cloudy BKN100 OVC250 38 23     55% 30   30.22 30.22      
Dec 06 16:54 SW 9 10 Mostly Cloudy SCT120 BKN250 38 22     52% 31   30.21 30.21      
Dec 06 15:54 WSW 14 10 Mostly Cloudy FEW043 BKN250 39 21     48% 31   30.22 30.21      
Dec 06 14:54 W 14 10 Mostly Cloudy SCT041 BKN250 39 21     48% 31   30.23 30.23      
Dec 06 13:54 WSW 18 10 Mostly Cloudy BKN041 BKN046 38 22     52% 28   30.22 30.22      
Dec 06 12:54 W 14 10 Mostly Cloudy FEW036 BKN045 BKN250 38 21     50% 30   30.23 30.23      
Dec 06 11:54 W 15 10 Mostly Cloudy FEW030 SCT150 BKN250 38 23     55% 29   30.25 30.25      
Dec 06 10:54 W 13 10 Mostly Cloudy SCT049 BKN150 BKN250 35 24     64% 26   30.28 30.28      
Dec 06 09:54 W 11 10 Cloudy BKN049 BKN150 OVC250 33 22     63% 24   30.3 30.29      
Dec 06 08:54 W 6 10 Mostly Cloudy BKN045 BKN170 BKN240 32 22     66% 26   30.29 30.28      
Dec 06 07:54 WSW 6 10 Mostly Cloudy SCT180 BKN220 30 22     71% 24   30.27 30.27      
Dec 06 06:54 W 8 10 Mostly Cloudy SCT200 BKN240 30 22     71% 22   30.26 30.25      
Dec 06 05:54 WNW 9 10 Partly Cloudy SCT250 30 22     71% 22   30.25 30.24      
Dec 06 04:54 W 9 10 Clear CLR 29 23     78% 20   30.22 30.22      
Dec 06 03:54 W 8 10 Clear CLR 29 22     75% 21   30.21 30.21      
Dec 06 02:54 WNW 7 10 Clear CLR 29 22     75% 22   30.2 30.2      
Dec 06 01:54 WNW 7 10 Clear CLR 29 21     72% 22   30.2 30.2      
Dec 06 00:54 WNW 9 10 Clear CLR 30 20     66% 22   30.2 30.19      
Dec 05 23:54 W 8 10 Clear CLR 29 20     69% 21   30.19 30.19      
Dec 05 22:54 W 7 10 Clear CLR 30 19     63% 23   30.18 30.18      
Dec 05 21:54 WNW 7 10 Clear CLR 30 20     66% 23   30.16 30.16      
Dec 05 20:54 WNW 10 10 Mostly Clear FEW100 31 21     66% 22   30.14 30.14      
Dec 05 19:54 W 10 10 Partly Cloudy FEW095 SCT250 32 22     66% 24   30.13 30.13      
Dec 05 18:54 W 7 10 Mostly Cloudy BKN095 BKN250 32 24     72% 26   30.12 30.11     0
Dec 05 17:54 WNW 7 10 Mostly Cloudy FEW075 BKN090 BKN250 33 25     72% 27   30.1 30.1      
Dec 05 16:54 WNW 6 10 Mostly Cloudy BKN065 BKN090 BKN250 33 25     72% 28   30.09 30.09      
Dec 05 15:54 NW 6 10 Cloudy SCT050 BKN090 OVC250 32 26     78% 26   30.08 30.07 0 0  
Dec 05 15:21 NW 3 10 Mostly Cloudy SCT050 SCT070 BKN090 31 28     89% 28   30.07   0    
Dec 05 15:04 NW 7 8 Cloudy SCT012 BKN045 OVC050 31 27     85% 24   30.07   0    
Dec 05 14:54 NW 8 4 Light Snow and Fog/Mist SCT010 BKN039 OVC049 31 27     85% 23   30.06 30.06 0    
Dec 05 14:37 NW 7 2 Light Snow and Fog/Mist SCT010 OVC035 31 27     85% 24   30.06   0    
Dec 05 14:26 WNW 7 1.5 Light Snow and Fog/Mist SCT010 BKN029 OVC039 31 28     89% 24   30.06   0    
Dec 05 13:54 W 6 1 Light Snow and Fog/Mist FEW010 OVC020 30 27     88% 24   30.06 30.06 0    
Dec 05 12:54 NNW 6 1 Light Snow BKN020 OVC032 30 25     81% 24   30.06 30.06 0   0
Dec 05 12:01 N 6 1.5 Light Snow BKN028 OVC035 31 23     72% 25   30.06   0    
Dec 05 11:54 Calm 2.5 Light Snow BKN030 OVC037 31 23     72%     30.06 30.06 0    
Dec 05 11:35 NE 5 2.5 Light Snow FEW025 BKN037 OVC047 31 22     69% 26   30.06   0    
Dec 05 11:30 NNE 5 3 Light Snow FEW025 SCT037 OVC047 31 22     69% 26   30.06   0    
Dec 05 11:28 NNE 5 4 Light Snow FEW025 SCT037 OVC047 31 21     66% 26   30.07   0    
Dec 05 11:14 NE 6 6 Light Snow FEW025 OVC047 31 20     63% 25   30.07   0    
Dec 05 10:54 NE 5 10 Light Snow FEW025 OVC050 31 21     66% 26   30.07 30.07 0    
Dec 05 10:29 NE 8 10 Light Snow FEW028 OVC050 31 20     63% 23   30.08   0    
Dec 05 09:54 NE 8 10 Cloudy FEW030 BKN047 OVC130 31 19     61% 23   30.08 30.08      
Dec 05 08:54 NNE 6 10 Mostly Cloudy SCT045 BKN060 BKN150 29 19     66% 23   30.08 30.08      
Dec 05 07:54 N 9 10 Mostly Cloudy SCT047 BKN150 27 18     68% 18   30.09 30.09      
Dec 05 06:54 N 8 10 Partly Cloudy SCT150 26 17     68% 18   30.09 30.09      
Dec 05 05:54 N 6 10 Mostly Clear FEW150 27 17     66% 20   30.08 30.08      
Dec 05 04:54 NNE 6 10 Mostly Clear FEW140 27 17     66% 20   30.08 30.07      
Dec 05 03:54 NE 7 10 Mostly Clear FEW140 27 17     66% 19   30.08 30.07      
Dec 05 02:54 NE 8 10 Clear CLR 27 17     66% 19   30.1 30.09      
Dec 05 01:54 NE 6 10 Clear CLR 28 17     63% 22   30.09 30.09      
Dec 05 00:54 NNE 3 10 Clear CLR 29 17     61% 25   30.1 30.09      
Dec 04 23:54 N 5 10 Clear CLR 30 17     58% 25   30.1 30.1      
Dec 04 22:54 N 7 10 Clear CLR 31 17     56% 24   30.1 30.09      
Dec 04 21:54 N 8 10 Clear CLR 32 18     56% 25   30.1 30.1      
Dec 04 20:54 NNW 7 10 Clear CLR 33 17     51% 27   30.1 30.09      
Dec 04 19:54 N 10 10 Clear CLR 35 17     47% 27   30.07 30.07      
Dec 04 18:54 N 8 10 Clear CLR 36 18     48% 30   30.04 30.04      
Dec 04 17:54 NNW 7 10 Mostly Clear FEW050 37 19     48% 32   30.04 30.04      
Dec 04 16:54 NNW 11 10 Partly Cloudy SCT050 38 19     46% 30   30.02 30.02      
Dec 04 15:54 NNW 10 10 Partly Cloudy SCT055 40 18     41% 33   30.01 30.01      
Dec 04 14:54 WNW 14 10 Partly Cloudy SCT050 42 19     39% 35   29.99 29.98      
Dec 04 13:54 NNW 16 10 Partly Cloudy SCT050 42 18     37% 34   29.99 29.99      
Dec 04 12:54 NW 14 10 Mostly Cloudy BKN050 41 19     41% 33   30 30      
Dec 04 11:54 NNW 16 10 Cloudy OVC044 40 22     48% 31   30.01 30.01      
Dec 04 10:54 NNW 14 10 Cloudy OVC044 40 23     50% 32   30.02 30.02      
Dec 04 09:54 N 14 10 Mostly Cloudy BKN046 40 21     46% 32   30.02 30.02      
Dec 04 08:54 NNW 21 10 Mostly Cloudy and Windy BKN044 38 20     48% 28   30.01 30      
Dec 04 07:54 NNW 18 10 Mostly Cloudy BKN044 38 22     52% 28   29.98 29.98      
Dec 04 06:54 NW 13 10 Mostly Cloudy BKN044 38 22     52% 30   29.96 29.96      
Dec 04 05:54 NW 17 10 Mostly Cloudy BKN042 38 22     52% 29   29.94 29.93      
Dec 04 04:54 N 14 10 Mostly Cloudy BKN041 40 25     55% 32   29.9 29.9      
Dec 04 03:54 NNW 16 10 Cloudy OVC043 41 28     60% 33   29.87 29.87      
Dec 04 02:54 NNW 20 10 Mostly Cloudy and Windy SCT034 BKN044 42 30     62% 33   29.85 29.85      
Dec 04 01:54 WNW 11 10 Mostly Clear FEW055 44 31     60% 38   29.83 29.83      
Dec 04 00:54 WNW 10 10 Clear CLR 44 32     62% 39   29.81 29.81      
Dec 03 23:54 WSW 10 10 Mostly Clear FEW085 43 33     68% 37   29.8 29.8      
Dec 03 22:54 W 11 10 Mostly Clear FEW080 45 33     63% 39   29.8 29.8      
Dec 03 21:54 WSW 13 10 Mostly Cloudy BKN075 48 33     56% 43   29.79 29.78      
Dec 03 20:54 WSW 9 10 Mostly Cloudy FEW050 BKN080 46 33     60% 41   29.78 29.78      
Dec 03 19:54 W 7 10 Partly Cloudy FEW050 SCT090 SCT150 49 33     54% 46   29.79 29.78      
Dec 03 18:54 W 11 10 Mostly Cloudy SCT055 SCT090 BKN130 BKN250 50 33     52%     29.79 29.79      
Dec 03 17:54 W 10 10 Cloudy BKN055 OVC250 51 33     50%     29.78 29.78      
Dec 03 16:54 WNW 13 10 Cloudy BKN050 OVC250 52 32     46%     29.76 29.76      
Dec 03 15:54 WNW 15 10 Mostly Cloudy BKN050 BKN250 52 33     48%     29.74 29.74      
Dec 03 14:54 WNW 17 10 Mostly Cloudy BKN050 BKN250 54 34     47%     29.71 29.71      
Dec 03 13:54 WNW 23 10 Partly Cloudy and Windy SCT050 SCT250 55 33     43%     29.69 29.69      
Dec 03 12:54 WNW 17 10 Partly Cloudy SCT048 SCT250 55 34     45%     29.71 29.71      
Dec 03 11:54 W 23 10 Partly Cloudy and Windy FEW046 SCT260 55 34     45%     29.72 29.72      
Dec 03 10:54 W 21 10 Mostly Cloudy and Windy BKN260 54 36     50%     29.74 29.74      
Dec 03 09:54   10 Mostly Cloudy BKN260 54 38     55%     29.73 29.73      
Dec 03 08:54 W 23 10 Mostly Cloudy and Windy BKN280 53 38     56%     29.69 29.69      
Dec 03 07:54 WSW 13 10 Mostly Cloudy BKN280 52 44     74%     29.68 29.68      
Dec 03 06:54 SW 7 8 Mostly Cloudy BKN280 49 48     97% 46   29.66 29.66      
Dec 03 05:54 W 8 6 Fog/Mist FEW013 SCT280 49 48     97% 45   29.64 29.64      
Dec 03 04:54 WSW 7 7 Mostly Clear FEW013 51 50     96%     29.63 29.62      
Dec 03 03:54 SW 13 7 Partly Cloudy SCT013 SCT028 54 52     93%     29.62 29.62      
Dec 03 03:28 SW 9 7 Partly Cloudy FEW013 SCT028 SCT200 54 53     97%     29.62        
Dec 03 03:12 WSW 11 6 Fog/Mist FEW013 SCT022 55 53     93%     29.62        
Dec 03 02:54 WSW 9 4 Fog/Mist BKN013 BKN020 55 54     96%     29.62 29.62      
Dec 03 02:46 WSW 9 4 Fog/Mist SCT008 BKN014 BKN022 54 54     100%     29.62        
Dec 03 02:24 WSW 8 4 Fog/Mist BKN008 BKN016 56 55     97%     29.62        
Dec 03 01:54 WSW 10 2 Fog/Mist BKN008 OVC013 56 55     97%     29.62 29.61      
Dec 03 01:41 SW 11 2 Fog/Mist BKN008 OVC013 56 55     97%     29.61        
Dec 03 00:54 SW 8 2 Fog/Mist OVC006 55 55     100%     29.6 29.6     0
Dec 03 00:15 WSW 10 2 Fog/Mist OVC006 55 55     100%     29.61        
Dec 02 23:54 SW 5 2 Fog/Mist OVC004 54 54     100%     29.61 29.61      
Dec 02 23:34 WSW 5 2 Fog/Mist BKN004 OVC009 54 54     100%     29.62        
Dec 02 22:54 SW 8 2 Fog/Mist OVC009 55 55     100%     29.62 29.62 0    
Dec 02 21:54 SW 10 2 Light Drizzle and Fog/Mist OVC008 55 55     100%     29.63 29.63 0 0  
Dec 02 21:50 SW 10 2 Light Drizzle and Fog/Mist OVC008 55 55     100%     29.63   0    
Dec 02 21:15 WSW 10 2 Light Drizzle and Fog/Mist BKN005 OVC009 55 55     100%     29.64   0    
Dec 02 20:54 W 10 2 Light Drizzle and Fog/Mist BKN004 OVC009 55 55     100%     29.64 29.64 0    
Dec 02 20:11 WSW 9 2 Light Drizzle and Fog/Mist BKN004 OVC007 55 55     100%     29.64   0    
Dec 02 19:54 WSW 9 1.25 Light Drizzle and Fog/Mist BKN003 OVC007 55 55     100%     29.64 29.63 0    
Dec 02 19:34 W 7 0.5 Light Drizzle and Fog OVC002 54 54     100%     29.64   0    
Dec 02 18:54 WSW 7 1.5 Light Drizzle and Fog/Mist OVC003 54 54     100%     29.62 29.62 0   0
Dec 02 18:13 SW 9 1.5 Light Drizzle and Fog/Mist OVC003 54 54     100%     29.62   0    
Dec 02 18:05 SW 6 3 Light Drizzle and Fog/Mist OVC003 54 54     100%     29.62   0    
Dec 02 17:54 SSW 6 1.5 Light Drizzle and Fog/Mist OVC003 54 53     97%     29.61 29.61 0    
Dec 02 17:02 WSW 7 0.5 Light Drizzle and Fog OVC002 53 53     100%     29.62   0    
Dec 02 16:54 WSW 7 0.75 Light Drizzle and Fog/Mist OVC002 53 53     100%     29.63 29.62 0    
Dec 02 16:50 WSW 8 0.75 Light Drizzle and Fog/Mist OVC002 54 54     100%     29.63   0    
Dec 02 16:04 WSW 10 1.25 Light Drizzle and Fog/Mist OVC002 54 54     100%     29.63   0    
Dec 02 15:54 SW 9 0.75 Light Drizzle and Fog/Mist OVC002 54 54     100%     29.64 29.63 0 0  
Dec 02 15:52 WSW 9 0.75 Light Drizzle and Fog/Mist OVC002 54 54     100%     29.64   0    
Dec 02 14:54 WSW 10 0.5 Light Drizzle and Fog VV002 54 54     100%     29.64 29.64 0    
Dec 02 13:54 WSW 13 0.25 Light Drizzle and Fog OVC003 55 55     100%     29.66 29.66 0    
Dec 02 13:49 WSW 13 0.5 Light Drizzle and Fog OVC004 55 55     100%     29.66   0    
Dec 02 13:19 WSW 15 0.75 Light Drizzle and Fog/Mist OVC004 57 57     100%     29.67   0    
Dec 02 12:54 SW 8 1 Light Drizzle and Fog/Mist OVC004 58 57     97%     29.67 29.67 0   0
Dec 02 12:31 SSW 3 1 Light Drizzle and Fog/Mist OVC004 55 55     100%     29.68   0    
Dec 02 12:10 Calm 0.75 Light Drizzle and Fog/Mist OVC004 54 54     100%     29.69   0    
Dec 02 12:06 Calm 0.5 Light Drizzle and Fog OVC003 54 54     100%     29.69   0    
Dec 02 11:54 Calm 0.25 Light Drizzle and Fog VV002 54 54     100%     29.7 29.69 0    
Dec 02 11:39 SW 5 0.25 Fog VV002 55 55     100%     29.7   0    
Dec 02 11:27 WSW 7 0.25 Fog VV002 55 55     100%     29.71   0    
Dec 02 10:54 Calm 0.5 Light Drizzle and Fog OVC002 55 55     100%     29.72 29.72 0    
Dec 02 10:29 Calm 0.5 Light Drizzle and Fog OVC002 54 54     100%     29.73   0    
Dec 02 10:22 3 0.75 Fog/Mist OVC003 54 53     97%     29.73        
Dec 02 09:54 NNW 5 1.5 Fog/Mist OVC003 53 53     100%     29.74 29.74 0 0  
Dec 02 09:14 N 3 1.5 Light Drizzle and Fog/Mist OVC003 51 51     100%     29.74   0    
Dec 02 08:54 Calm 2 Light Rain and Fog/Mist OVC003 51 51     100%     29.74 29.74 0    
Dec 02 07:54 ENE 3 2.5 Fog/Mist OVC004 50 49     96%     29.75 29.75 0    
Dec 02 07:44 ENE 5 2.5 Fog/Mist OVC004 49 49     100% 47   29.76   0    
Dec 02 06:54 NE 5 1.75 Light Drizzle and Fog/Mist BKN004 OVC012 49 48     97% 47   29.78 29.78 0   0
Dec 02 06:33 E 5 1.75 Light Rain and Fog/Mist BKN004 OVC012 48 48     100% 46   29.79   0    
Dec 02 05:54 NE 8 2.5 Light Rain and Fog/Mist BKN004 OVC012 49 48     97% 45   29.81 29.81 0    
Dec 02 05:37 NE 7 2.5 Light Rain and Fog/Mist BKN004 OVC015 49 48     97% 46   29.82   0    
Dec 02 04:54 NNE 7 3 Light Rain and Fog/Mist OVC004 48 47     96% 45   29.84 29.83 0    
Dec 02 04:36 NE 5 3 Light Rain and Fog/Mist OVC004 48 48     100% 46   29.84   0    
Dec 02 03:54 NE 6 3 Rain and Fog/Mist OVC005 48 48     100% 45   29.86 29.86 0 0  
Dec 02 02:54 ENE 5 3 Light Rain and Fog/Mist OVC005 47 47     100% 45   29.91 29.91 0    
Dec 02 02:33 E 6 4 Light Rain and Fog/Mist OVC005 47 46     97% 44   29.91   0    
Dec 02 02:12 E 8 5 Light Rain and Fog/Mist OVC005 46 46     100% 42   29.91   0    
Dec 02 01:54 E 8 4 Light Rain and Fog/Mist OVC005 46 45     96% 42   29.92 29.92 0    
Dec 02 00:54 ENE 8 3 Light Rain and Fog/Mist OVC005 44 44     100% 40   29.96 29.96 0   0
Dec 01 23:54 E 9 3 Light Rain and Fog/Mist OVC005 43 42     97% 38   30.01 30 0    
Dec 01 23:29 E 9 3 Light Rain and Fog/Mist OVC005 43 42     97% 38   30.02   0    
Dec 01 23:08 E 10 4 Light Rain and Fog/Mist OVC007 43 41     93% 37   30.03   0    
Dec 01 22:54 E 10 6 Light Drizzle and Fog/Mist OVC007 43 41     93% 37   30.05 30.04 0    
Dec 01 21:54 ENE 8 5 Fog/Mist OVC007 42 41     96% 37   30.08 30.08 0 0  
Dec 01 21:39 ENE 8 5 Light Rain and Fog/Mist OVC007 42 41     96% 37   30.1   0    
Dec 01 20:54 ENE 5 3 Light Drizzle and Fog/Mist OVC007 42 41     96% 39   30.13 30.12 0    
Dec 01 20:42 NE 3 2.5 Light Drizzle and Fog/Mist OVC009 42 41     96% 40   30.13   0    
Dec 01 20:16 E 7 3 Light Drizzle and Fog/Mist OVC009 42 40     92% 38   30.13   0    
Dec 01 20:12 E 6 10 Cloudy OVC009 42 40     92% 38   30.13        
Dec 01 19:54 ENE 5 10 Cloudy BKN011 OVC017 42 40     92% 39   30.13 30.13      
Dec 01 19:26 E 7 10 Cloudy BKN011 OVC017 42 40     92% 38   30.12        
Dec 01 18:54 E 6 10 Cloudy SCT011 BKN018 OVC030 43 40     89% 39   30.13 30.13 0   0
Dec 01 18:20 E 8 10 Cloudy SCT011 BKN018 OVC044 43 40     89% 38   30.13   0    
Dec 01 17:54 E 10 10 Cloudy BKN045 OVC060 43 40     89% 37   30.14 30.13      
Dec 01 17:10 E 10 10 Cloudy FEW042 SCT060 OVC075 43 41     93% 37   30.13        
Dec 01 16:54 E 8 6 Fog/Mist SCT042 BKN060 OVC075 44 41     89% 40   30.14 30.14 0    
Dec 01 16:20 E 7 6 Light Rain and Fog/Mist SCT026 BKN070 OVC095 44 41     89% 40   30.15   0    
Dec 01 15:54 ESE 5 5 Light Rain BKN026 OVC040 45 40     82% 43   30.16 30.15 0 0  
Dec 01 15:43 ESE 6 5 Light Rain BKN028 OVC055 45 40     82% 42   30.16   0    
Dec 01 15:18 SE 5 7 Light Rain BKN028 OVC060 47 37     68% 45   30.16   0    
Dec 01 14:54 E 3 10 Cloudy BKN028 OVC080 47 37     68% 46   30.16 30.16      
Dec 01 14:32 E 7 10 Cloudy BKN025 OVC080 48 37     66% 45   30.16        
Dec 01 13:54 E 5 10 Cloudy SCT025 SCT080 BKN170 OVC280 49 37     63% 47   30.16 30.15      
Dec 01 12:54 E 6 10 Mostly Cloudy SCT022 SCT160 BKN210 BKN280 47 36     65% 44   30.17 30.17      
Dec 01 11:54 ENE 7 10 Mostly Cloudy FEW018 SCT150 BKN210 BKN280 46 35     65% 42   30.2 30.2      
Dec 01 10:54 E 8 10 Mostly Cloudy SCT018 BKN150 BKN260 44 34     67% 40   30.22 30.22      
Dec 01 10:48 NE 7 10 Mostly Cloudy SCT018 BKN150 BKN260 45 34     66% 41   30.22        
Dec 01 10:37 ENE 6 10 Mostly Cloudy BKN018 BKN180 BKN260 43 34     70% 39   30.25        
Dec 01 09:54 E 7 10 Mostly Cloudy FEW045 SCT200 BKN260 42 34     73% 38   30.21 30.21      
Dec 01 09:22 ENE 9 10 Mostly Cloudy FEW045 SCT200 BKN260 41 34     76% 35   30.21        
Dec 01 08:54 NNW 3 8 Mostly Cloudy FEW045 SCT200 BKN260 39 33     79% 37   30.23 30.23      
Dec 01 07:54 N 7 7 Mostly Cloudy SCT200 BKN260 35 31     85% 29   30.2 30.2      
Dec 01 06:54 N 7 9 Partly Cloudy FEW150 SCT250 34 30     85% 28   30.2 30.19      
Dec 01 05:54 N 5 8 Partly Cloudy SCT250 33 29     85% 29   30.19 30.19      
Dec 01 05:15 NW 3 8 Mostly Cloudy BKN250 35 29     78% 32   30.19        
Dec 01 04:54 NNW 3 10 Partly Cloudy SCT250 34 29     82% 31   30.19 30.18      
Dec 01 03:54 NNW 6 10 Partly Cloudy SCT250 37 30     76% 32   30.17 30.16      
Dec 01 02:54 NNW 5 10 Partly Cloudy SCT250 37 30     76% 33   30.15 30.15      
Dec 01 01:54 N 3 10 Partly Cloudy FEW030 SCT250 37 29     72% 35   30.14 30.13      
Dec 01 00:54 NNW 5 10 Partly Cloudy SCT031 39 30     70% 36   30.14 30.14      
Nov 30 23:54 NNW 6 10 Cloudy FEW026 OVC032 40 30     67% 36   30.12 30.12      
Nov 30 22:54 NW 7 10 Cloudy SCT026 OVC039 42 30     62% 38   30.13 30.12      
Nov 30 22:48 NW 7 10 Cloudy SCT026 OVC039 43 28     57% 39   30.12        
Nov 30 21:54 NNW 7 10 Cloudy BKN026 OVC044 42 30     62% 38   30.11 30.11      
Nov 30 21:36 NNW 8 10 Cloudy OVC028 42 30     62% 37   30.12        
Nov 30 20:54 N 3 10 Cloudy SCT026 OVC033 42 30     62% 40   30.11 30.11      
Nov 30 19:54 N 7 10 Cloudy BKN030 OVC045 43 29     57% 39   30.1 30.09      
Nov 30 18:54 NNW 7 10 Cloudy BKN035 OVC043 43 28     55% 39   30.08 30.07      
Nov 30 17:54 NNE 3 10 Cloudy BKN036 OVC060 43 28     55% 41   30.06 30.05      
Nov 30 16:54 E 3 10 Cloudy SCT032 BKN065 OVC080 43 31     62% 41   30.04 30.03      
Nov 30 15:54 ENE 5 10 Cloudy BKN035 OVC070 44 27     51% 41   30.02 30.02      
Nov 30 14:54 Calm 10 Cloudy BKN039 OVC070 44 26     49%     30.01 30.01      
Nov 30 13:54 NE 3 10 Cloudy BKN037 OVC085 43 27     53% 41   30.01 30.01      
Nov 30 12:54 Calm 10 Cloudy BKN045 OVC085 42 27     55%     30.02 30.02      
Nov 30 11:54 Calm 10 Cloudy BKN049 OVC085 41 27     57%     30.05 30.04      
Nov 30 10:54 WSW 6 10 Cloudy BKN045 BKN085 OVC140 40 27     60% 36   30.08 30.08      
Nov 30 09:54 Calm 10 Mostly Cloudy BKN055 BKN085 BKN140 41 28     60%     30.07 30.07      
Nov 30 08:54 E 5 10 Mostly Cloudy SCT045 BKN085 39 28     64% 36   30.06 30.06      
Nov 30 07:54 Calm 10 Mostly Cloudy BKN045 BKN070 BKN100 36 28     73%     30.07 30.07      
Nov 30 06:54 S 3 10 Mostly Cloudy SCT050 BKN070 BKN100 36 28     73% 33   30.08 30.07      
Nov 30 05:54 Calm 10 Cloudy OVC055 37 26     64%     30.07 30.06      
Nov 30 04:54 Calm 10 Cloudy BKN050 OVC070 36 25     64%     30.06 30.06      
Nov 30 03:54 NW 3 10 Cloudy BKN055 BKN075 OVC120 36 25     64% 33   30.08 30.07      
Nov 30 02:54 WSW 3 10 Cloudy BKN055 BKN075 OVC120 35 24     64% 32   30.07 30.06      
Nov 30 01:54 WSW 6 10 Cloudy BKN060 BKN075 OVC100 35 24     64% 30   30.07 30.07      
Nov 30 00:54 WNW 5 10 Clear   35 24     64% 31   30.07 30.06      
Nov 29 23:54 NW 6 10 Mostly Cloudy BKN100 BKN250 35 23     61% 30   30.08 30.08      
Nov 29 22:54 NW 6 10 Partly Cloudy FEW050 SCT250 34 23     64% 29   30.08 30.08      
Nov 29 21:54 W 8 10 Partly Cloudy SCT280 35 24     64% 29   30.08 30.08      
Nov 29 20:54 WNW 10 10 Mostly Clear FEW250 36 24     62% 29   30.07 30.06      
Nov 29 19:54 W 9 10 Mostly Clear FEW040 36 24     62% 29   30.06 30.05      
Nov 29 18:54 W 10 10 Mostly Clear FEW040 39 24     55% 32   30.05 30.05      
Nov 29 17:54 WNW 10 10 Mostly Clear FEW044 40 24     53% 33   30.02 30.02      
Nov 29 16:54 WNW 10 10 Mostly Clear FEW044 42 24     49% 36   30 30      
Nov 29 15:54 WNW 13 10 Partly Cloudy SCT045 44 24     45% 38   29.99 29.99      
Nov 29 14:54 WNW 15 10 Partly Cloudy SCT045 45 25     45% 38   29.98 29.98      
Nov 29 13:54 WNW 14 10 Mostly Cloudy BKN044 45 25     45% 39   29.98 29.98      
Nov 29 12:54 NW 15 10 Mostly Cloudy BKN042 44 25     47% 37   29.99 29.99      
Nov 29 11:54 NNW 16 10 Mostly Cloudy BKN042 BKN250 43 24     47% 35   29.99 29.99      
Nov 29 10:54 WNW 14 10 Partly Cloudy FEW035 FEW220 SCT250 42 25     50% 35   30.01 30.01      
Nov 29 09:54 WNW 13 10 Partly Cloudy FEW220 SCT250 40 24     53% 32   30.01 30.01      
Nov 29 08:54 WNW 11 10 Partly Cloudy FEW045 FEW100 SCT230 37 24     59% 29   30 29.99      
Nov 29 07:54 W 10 10 Partly Cloudy FEW045 FEW100 SCT250 35 24     64% 27   29.99 29.98      
Nov 29 06:54 W 9 10 Partly Cloudy FEW045 FEW100 SCT250 34 24     67% 27   29.97 29.97      
Nov 29 05:54 WNW 13 10 Partly Cloudy FEW045 FEW070 SCT100 SCT250 35 24     64% 26   29.94 29.94      
Nov 29 04:54 WNW 16 10 Mostly Cloudy BKN045 BKN070 BKN100 36 24     62% 26   29.92 29.92      
Nov 29 03:54 W 18 10 Cloudy OVC042 36 24     62% 26   29.91 29.91      
Nov 29 02:54 W 15 10 Cloudy BKN040 OVC050 36 24     62% 27   29.91 29.9      
Nov 29 01:54 W 18 10 Cloudy BKN042 OVC055 36 24     62% 26   29.89 29.88      
Nov 29 00:54 W 18 10 Cloudy BKN048 OVC060 36 23     59% 26   29.87 29.87      
Nov 28 23:54 W 17 10 Cloudy OVC050 36 23     59% 26   29.87 29.86      
Nov 28 22:54 W 15 10 Cloudy BKN048 OVC065 36 23     59% 27   29.85 29.85      
Nov 28 21:54 W 17 10 Cloudy BKN050 BKN065 OVC080 36 22     56% 26   29.84 29.84      
Nov 28 20:54 W 21 10 Cloudy and Windy SCT038 BKN055 OVC080 36 22     56% 25   29.83 29.83      
Nov 28 19:54 W 23 10 Cloudy and Windy BKN038 OVC055 36 22     56% 24   29.82 29.82      
Nov 28 18:54 W 18 10 Mostly Cloudy BKN038 BKN055 37 22     54% 27   29.79 29.79      
Nov 28 17:54 W 20 10 Mostly Cloudy and Windy BKN043 BKN060 37 21     52% 27   29.76 29.76      
Nov 28 16:54 W 24 10 Mostly Cloudy and Windy BKN043 37 21     52% 26   29.74 29.73      
Nov 28 15:54 W 23 10 Mostly Cloudy and Windy BKN050 BKN150 38 20     48% 27   29.71 29.71      
Nov 28 14:54 WNW 25 10 Mostly Cloudy and Windy BKN050 BKN160 BKN210 39 20     46% 28   29.69 29.68      
Nov 28 13:54 W 25 10 Mostly Cloudy and Windy FEW041 BKN050 BKN160 BKN210 39 20     46% 28   29.66 29.66      
Nov 28 12:54 W 25 10 Mostly Cloudy and Windy FEW041 BKN048 BKN160 BKN210 39 19     44% 28   29.65 29.65      
Nov 28 11:54 WNW 23 10 Mostly Cloudy and Windy FEW041 BKN046 BKN160 BKN210 39 20     46% 28   29.64 29.64      
Nov 28 10:54 WNW 22 10 Cloudy and Windy FEW041 SCT047 SCT130 OVC160 38 20     48% 27   29.66 29.65      
Nov 28 09:54 W 23 10 Cloudy and Windy SCT037 BKN047 OVC140 36 21     54% 24   29.65 29.65      
Nov 28 08:54 W 22 10 Cloudy and Windy FEW037 SCT045 OVC120 36 21     54% 25   29.64 29.63      
Nov 28 07:54 W 16 10 Mostly Cloudy FEW045 FEW100 SCT180 BKN250 36 21     54% 26   29.62 29.62      
Nov 28 06:54 WNW 18 10 Mostly Cloudy FEW045 FEW100 BKN180 35 20     54% 24   29.6 29.59      
Nov 28 05:54 W 15 10 Mostly Cloudy BKN049 36 21     54% 27   29.58 29.58      
Nov 28 04:54 W 14 10 Cloudy OVC045 36 22     56% 27   29.57 29.57      
Nov 28 03:54 W 15 10 Cloudy OVC045 36 22     56% 27   29.57 29.57      
Nov 28 02:54 W 14 10 Cloudy OVC045 36 23     59% 27   29.57 29.57      
Nov 28 01:54 W 14 10 Cloudy OVC045 36 23     59% 27   29.56 29.56      
Nov 28 00:54 W 18 10 Cloudy OVC045 36 23     59% 26   29.56 29.56      
Nov 27 23:54 W 14 10 Cloudy OVC043 36 23     59% 27   29.57 29.57      
Nov 27 22:54 W 17 10 Cloudy OVC041 36 22     56% 26   29.58 29.58      
Nov 27 21:54 W 17 10 Cloudy OVC041 36 22     56% 26   29.58 29.58      
Nov 27 20:54 W 17 10 Cloudy OVC039 36 22     56% 26   29.59 29.58      
Nov 27 19:54 W 16 10 Cloudy OVC037 37 22     54% 28   29.6 29.59      
Nov 27 18:54 W 14 10 Cloudy OVC037 37 22     54% 28   29.6 29.6      
Nov 27 17:54 W 20 10 Cloudy and Windy OVC039 37 23     56% 27   29.6 29.6      
Nov 27 16:54 W 18 10 Clear   38 23     55% 28   29.58 29.58      
Nov 27 15:54 WNW 18 10 Cloudy OVC039 39 23     52% 30   29.58 29.58      
Nov 27 14:54 WNW 21 10 Cloudy and Windy OVC041 40 23     50% 30   29.57 29.57      
Nov 27 13:54   10 Cloudy OVC041 40 23     50%     29.57 29.57      
Nov 27 12:54 W 20 10 Cloudy and Windy OVC043 41 24     51% 32   29.57 29.57      
Nov 27 11:54 W 24 10 Mostly Cloudy and Windy BKN045 42 24     49% 32   29.57 29.57      
Nov 27 10:54   10 Cloudy OVC043 42 24     49%     29.59 29.59      
Nov 27 09:54 W 23 10 Mostly Cloudy and Windy BKN041 42 25     50% 33   29.6 29.59      
Nov 27 08:54 W 21 10 Partly Cloudy and Windy SCT041 SCT090 41 27     57% 32   29.58 29.58      
Nov 27 07:54 WSW 18 10 Mostly Clear FEW037 FEW090 39 28     64% 30   29.57 29.57      
Nov 27 06:54 W 15 10 Partly Cloudy FEW037 SCT090 38 28     67% 29   29.56 29.55      
Nov 27 05:54 WSW 13 10 Partly Cloudy FEW037 SCT085 SCT100 38 31     76% 30   29.54 29.53      
Nov 27 04:54 WSW 11 10 Partly Cloudy SCT065 SCT110 38 32     79% 30   29.52 29.52      
Nov 27 03:54 WSW 15 10 Clear CLR 39 32     76% 31   29.51 29.51      
Nov 27 02:54 WSW 15 10 Mostly Clear FEW110 40 32     73% 32   29.51 29.51      
Nov 27 01:54 WSW 15 10 Mostly Clear FEW090 40 33     76% 32   29.5 29.49      
Nov 27 00:54 W 14 10 Mostly Cloudy SCT045 BKN100 BKN180 42 34     73% 35   29.49 29.49 0   0
Nov 26 23:54 W 17 10 Light Rain FEW023 BKN047 OVC080 43 35     73% 35   29.5 29.5 0    
Nov 26 23:50 W 22 10 Cloudy and Windy SCT023 BKN047 OVC065 43 36     76% 34   29.5   0    
Nov 26 23:22   10 Cloudy BKN023 BKN044 OVC060 44 36     73%     29.49   0    
Nov 26 22:54 W 14 10 Cloudy SCT023 BKN038 OVC060 46 38     73% 40   29.48 29.48      
Nov 26 22:33 W 18 10 Cloudy FEW023 BKN037 OVC055 46 39     76% 39   29.48        
Nov 26 21:54 W 15 10 Cloudy SCT014 BKN020 OVC080 47 41     80% 41   29.47 29.47   0  
Nov 26 21:49 WNW 16 10 Cloudy SCT014 BKN020 OVC080 46 41     81% 40   29.47        
Nov 26 21:33 WNW 15 10 Cloudy SCT014 BKN022 OVC080 47 43     86% 41   29.46        
Nov 26 20:54 W 18 10 Cloudy SCT005 OVC012 48 45     89% 41   29.45 29.45 0    
Nov 26 20:45 W 18 10 Cloudy SCT005 OVC010 49 47     93% 43   29.45   0    
Nov 26 20:39 W 16 6 Light Drizzle and Fog/Mist BKN005 OVC012 49 47     93% 43   29.44   0    
Nov 26 20:28 W 11 4 Light Drizzle and Fog/Mist BKN007 OVC013 49 48     97% 44   29.44   0    
Nov 26 20:16 W 9 7 Cloudy BKN009 OVC013 49 48     97% 45   29.43        
Nov 26 19:54 WSW 11 8 Cloudy SCT006 OVC011 49 48     97% 44   29.44 29.44 0    
Nov 26 19:50 WSW 9 7 Cloudy SCT006 OVC011 48 48     100% 44   29.43   0    
Nov 26 19:07 W 7 5 Light Drizzle and Fog/Mist BKN006 OVC012 50 48     93%     29.44   0    
Nov 26 18:54 WNW 7 7 Cloudy BKN005 OVC015 50 48     93%     29.43 29.43 0   1
Nov 26 17:54 NNE 3 7 Light Rain OVC006 49 48     97% 48   29.44 29.44 0    
Nov 26 17:03 NE 10 7 Cloudy OVC006 49 48     97% 45   29.44   0    
Nov 26 16:54 NE 9 6 Fog/Mist BKN007 OVC012 49 48     97% 45   29.44 29.44 0    
Nov 26 16:37 NNE 9 5 Light Rain and Fog/Mist BKN007 OVC012 49 48     97% 45   29.45   0    
Nov 26 16:24 NNE 11 4 Light Rain and Fog/Mist BKN007 OVC012 49 48     97% 44   29.46   0    
Nov 26 16:01 NNE 8 1.25 Light Rain and Fog/Mist BKN007 OVC011 49 49     100% 45   29.47   0    
Nov 26 15:58 NNE 8 2 Light Rain and Fog/Mist BKN007 OVC011 49 49     100% 45   29.47   0    
Nov 26 15:54 NNE 8 4 Light Rain and Fog/Mist BKN007 OVC011 49 49     100% 45   29.47 29.47 0 1  
Nov 26 15:43 NE 10 3 Light Rain and Fog/Mist BKN007 OVC012 49 48     97% 45   29.48   0    
Nov 26 15:19 NE 7 2.5 Light Rain and Fog/Mist BKN009 OVC013 50 49     96%     29.49   0    
Nov 26 15:07 NE 6 2.5 Rain and Fog/Mist SCT007 BKN010 OVC022 49 49     100% 46   29.51   0    
Nov 26 14:54 ENE 6 1.5 Rain and Fog/Mist SCT007 BKN011 OVC018 49 48     97% 46   29.51 29.51 0    
Nov 26 14:33 ENE 7 1.5 Rain and Fog/Mist SCT007 BKN012 OVC018 49 48     97% 46   29.52   0    
Nov 26 13:54 E 13 1.25 Heavy Rain and Fog/Mist BKN012 OVC020 49 47     93% 44   29.54 29.54 0    
Nov 26 13:36 ESE 13 1.5 Rain and Fog/Mist BKN012 OVC019 49 47     93% 44   29.54   0    
Nov 26 13:21 E 10 2.5 Heavy Rain and Fog/Mist BKN016 OVC020 49 47     93% 45   29.55   0    
Nov 26 13:02 E 9 4 Rain and Fog/Mist FEW014 BKN019 OVC034 50 47     89%     29.56   0    
Nov 26 12:54 E 10 3 Rain and Fog/Mist SCT017 BKN034 OVC042 50 47     89%     29.57 29.57 0   0
Nov 26 12:49 E 10 3 Rain and Fog/Mist SCT021 BKN034 OVC042 50 46     87%     29.58   0    
Nov 26 12:00 SE 15 6 Light Rain FEW011 BKN047 OVC060 52 46     80%     29.64   0    
Nov 26 11:54 SE 14 7 Light Rain FEW011 BKN047 OVC065 52 46     80%     29.65 29.64 0    
Nov 26 10:54 ESE 13 8 Light Rain FEW011 BKN050 OVC080 52 47     83%     29.7 29.7 0    
Nov 26 09:54 SE 14 10 Cloudy FEW010 FEW050 OVC090 52 46     80%     29.77 29.76      
Nov 26 08:54 SE 11 10 Cloudy FEW010 FEW050 BKN100 OVC130 50 47     89%     29.8 29.8      
Nov 26 07:54 SE 6 10 Cloudy FEW010 FEW050 BKN130 OVC150 48 44     86% 45   29.84 29.83      
Nov 26 06:54 ESE 6 10 Mostly Cloudy FEW049 SCT055 BKN150 BKN190 45 42     90% 42   29.84 29.84      
Nov 26 05:54 ESE 5 10 Mostly Cloudy FEW044 BKN130 BKN190 43 41     93% 40   29.84 29.84      
Nov 26 04:54 E 6 7 Cloudy BKN120 OVC180 43 41     93% 39   29.84 29.84      
Nov 26 03:54 E 6 7 Cloudy OVC043 43 40     89% 39   29.88 29.88      
Nov 26 02:54 NE 5 7 Cloudy OVC043 41 40     96% 38   29.91 29.91      
Nov 26 01:54 Calm 7 Cloudy SCT045 OVC220 41 39     93%     29.94 29.93      
Nov 26 00:54 Calm 7 Cloudy SCT220 OVC280 41 39     93%     29.93 29.93      
Nov 25 23:54 W 3 7 Cloudy FEW200 SCT240 OVC280 41 39     93% 39   29.94 29.93      
Nov 25 22:54 Calm 8 Cloudy SCT220 OVC280 40 38     93%     29.94 29.93      
Nov 25 22:08 Calm 8 Mostly Cloudy SCT180 BKN250 42 39     89%     29.94        
Nov 25 21:54 E 3 10 Mostly Clear FEW050 42 39     89% 40   29.94 29.93      
Nov 25 20:54 Calm 10 Partly Cloudy SCT050 45 40     82%     29.95 29.95      
Nov 25 19:54 N 5 10 Mostly Cloudy BKN050 52 41     66%     29.96 29.96      
Nov 25 18:54 5 10 Clear   52 40     63%     29.96 29.96      
Nov 25 17:54 W 5 10 Partly Cloudy SCT045 52 40     63%     29.94 29.94      
Nov 25 16:54 WNW 7 10 Mostly Clear FEW045 FEW250 55 41     59%     29.92 29.92      
Nov 25 15:54 W 13 10 Partly Cloudy FEW040 FEW160 SCT250 56 40     55%     29.92 29.92      
Nov 25 14:54 WNW 15 10 Partly Cloudy FEW040 FEW160 SCT250 57 39     51%     29.9 29.89      
May 14 16:54 SSW 9 10 Partly Cloudy FEW025 SCT230 73 62     68%   73 29.96 29.95      
May 14 12:54 3 7 Cloudy OVC014 64 57     78%     30.03 30.02      
May 13 16:54 SSE 6 10 Cloudy FEW007 OVC010 56 53     90%     30.1 30.1   0  
May 13 11:54 E 10 9 Cloudy OVC009 55 52     89%     30.15 30.15      
May 13 01:54 ENE 9 5 Fog/Mist OVC009 57 55     93%     30.1 30.09     1
May 12 11:15 6 9 Cloudy OVC010 61 56     83%     30.11        
May 12 09:54 E 6 10 Cloudy OVC009 59 56     90%     30.11 30.11      
May 12 07:54 ENE 14 6 Fog/Mist BKN008 OVC012 55 53     93%     30.11 30.11     1
May 12 05:54   3 Thunderstorms and Rain and Fog/Mist FEW018 BKN032 OVC046 54 52     93%     30.1 30.1 0    
May 12 03:51   4 Heavy Rain SCT035 OVC055 57 50     77%     30.15   0    
May 12 02:54 NNE 9 10 Cloudy BKN060 OVC100 60 46     60%     30.1 30.09      
May 12 00:54 E 5 10 Cloudy FEW041 BKN075 OVC095 60 46     60%     30.11 30.11 0    
May 11 15:54 3 10 Partly Cloudy FEW070 FEW100 SCT260 76 43     31%   75 30.01 30.01      
May 11 12:54 WNW 13 10 Partly Cloudy SCT055 SCT250 74 49     41%   73 30.01 30.01      
Jun 10 21:54 SSW 6 10 Mostly Clear FEW070 78 58     50%   78 30.05 30.04      
Jun 10 15:54   10 Mostly Clear FEW065 87 53     31%   85 29.99 29.99      
Jun 10 11:54 SW 9 10 Mostly Clear FEW150 FEW280 82 55     40%   81 30.03 30.03      
Jun 10 08:54 WSW 6 10 Mostly Cloudy FEW060 BKN120 BKN280 73 56     55%   73 30.03 30.03      
Jun 08 08:54 6 10 Clear   64 51     63%     30.01 30.01      
Jun 07 16:54 ENE 5 10 Cloudy OVC047 65 48     54%     30.02 30.01      
Jun 07 09:37 ENE 9 10 Cloudy BKN023 OVC040 57 47     69%     30.01        
Jun 06 06:32 NE 8 2 Rain and Fog/Mist SCT004 BKN012 OVC031 61 59     93%     29.7   0